N420HE LFBD-EGGP

Flight info

Callsign N420HE
Flight time N/A
Altitude 40000
Route ROYAN DCT MANAK UT183 TIRAV UN490 TERPO UM616 KORER DCT NOZHU DCT PEPZE
Aircraft HDJT/L-SABDGRWY/H

Departure

Time 2026-05-07 19:01
Airport Bordeaux–Mérignac Airport (LFBD)

Arrival

Time N/A
Airport Liverpool John Lennon Airport (EGGP)
Time Latitude Longitude Altitude Speed Heading
2026-05-07 18:58 44.81991 -0.72788 168 ft 0 kts 45°
2026-05-07 19:00 44.82005 -0.72769 168 ft 22 kts 45°
2026-05-07 19:00 44.82323 -0.72307 164 ft 107 kts 46°
2026-05-07 19:01 44.82963 -0.71400 434 ft 154 kts 48°
2026-05-07 19:01 44.83780 -0.70257 1155 ft 172 kts 46°
2026-05-07 19:01 44.84682 -0.68994 1875 ft 195 kts 47°
2026-05-07 19:01 44.85671 -0.67614 2795 ft 201 kts 44°
2026-05-07 19:02 44.86945 -0.66684 3592 ft 221 kts 10°
2026-05-07 19:02 44.88453 -0.67027 4645 ft 226 kts 333°
2026-05-07 19:02 44.89585 -0.68583 5677 ft 228 kts 299°
2026-05-07 19:02 44.90234 -0.70574 6745 ft 227 kts 292°
2026-05-07 19:03 44.90934 -0.72695 7241 ft 240 kts 300°
2026-05-07 19:03 44.91962 -0.74448 8495 ft 230 kts 315°
2026-05-07 19:03 44.93297 -0.75752 9399 ft 238 kts 333°
2026-05-07 19:03 44.94880 -0.76504 10322 ft 242 kts 345°
2026-05-07 19:04 44.96524 -0.77095 11177 ft 245 kts 343°
2026-05-07 19:04 44.98183 -0.77731 12045 ft 249 kts 342°
2026-05-07 19:04 44.99870 -0.78368 12894 ft 253 kts 342°
2026-05-07 19:04 45.01587 -0.79008 13764 ft 257 kts 342°
2026-05-07 19:05 45.03327 -0.79660 14515 ft 260 kts 342°
2026-05-07 19:05 45.05091 -0.80321 15273 ft 264 kts 342°
2026-05-07 19:05 45.06878 -0.80990 16022 ft 268 kts 342°
2026-05-07 19:05 45.08668 -0.81661 16765 ft 271 kts 342°
2026-05-07 19:06 45.10505 -0.82352 17520 ft 274 kts 341°
2026-05-07 19:06 45.14254 -0.83764 18884 ft 282 kts 341°
2026-05-07 19:06 45.16160 -0.84479 19513 ft 285 kts 341°
2026-05-07 19:07 45.18088 -0.85206 20147 ft 288 kts 341°
2026-05-07 19:07 45.20040 -0.85942 20766 ft 292 kts 341°
2026-05-07 19:07 45.22015 -0.86686 21387 ft 295 kts 341°
2026-05-07 19:07 45.23987 -0.87430 22005 ft 298 kts 341°
2026-05-07 19:08 45.26007 -0.88194 22642 ft 302 kts 341°
2026-05-07 19:08 45.28052 -0.88964 23267 ft 305 kts 342°
2026-05-07 19:08 45.30118 -0.89744 23839 ft 309 kts 342°
2026-05-07 19:08 45.32201 -0.90534 24381 ft 311 kts 341°
2026-05-07 19:09 45.34300 -0.91332 24914 ft 314 kts 341°
2026-05-07 19:09 45.36418 -0.92134 25453 ft 316 kts 341°
2026-05-07 19:09 45.38553 -0.92941 25982 ft 319 kts 341°
2026-05-07 19:09 45.40711 -0.93761 26512 ft 322 kts 340°
2026-05-07 19:10 45.42862 -0.94580 27041 ft 325 kts 340°
2026-05-07 19:10 45.45059 -0.95416 27580 ft 328 kts 340°
2026-05-07 19:10 45.47272 -0.96257 28115 ft 331 kts 340°
2026-05-07 19:10 45.49514 -0.97111 28651 ft 334 kts 340°
2026-05-07 19:11 45.51774 -0.97974 29185 ft 337 kts 340°
2026-05-07 19:11 45.54051 -0.98842 29711 ft 341 kts 340°
2026-05-07 19:11 45.56328 -0.99710 30201 ft 344 kts 340°
2026-05-07 19:11 45.58651 -1.00598 30642 ft 347 kts 340°
2026-05-07 19:12 45.60996 -1.01495 31074 ft 350 kts 340°
2026-05-07 19:12 45.63361 -1.02401 31499 ft 352 kts 340°
2026-05-07 19:12 45.65763 -1.03225 31902 ft 358 kts 347°
2026-05-07 19:12 45.68273 -1.03422 32313 ft 366 kts
2026-05-07 19:13 45.70785 -1.03005 32719 ft 369 kts
2026-05-07 19:13 45.73344 -1.02492 33117 ft 372 kts
2026-05-07 19:13 45.75926 -1.02051 33502 ft 374 kts
2026-05-07 19:13 45.78526 -1.01641 33882 ft 376 kts
2026-05-07 19:14 45.81102 -1.01198 34192 ft 379 kts
2026-05-07 19:14 45.83722 -1.00725 34507 ft 380 kts
2026-05-07 19:14 45.89109 -0.99806 34622 ft 398 kts
2026-05-07 19:15 45.91861 -0.99330 34881 ft 399 kts
2026-05-07 19:15 45.94626 -0.98844 35115 ft 400 kts
2026-05-07 19:15 45.97388 -0.98365 35274 ft 397 kts
2026-05-07 19:15 46.00153 -0.97890 35368 ft 401 kts
2026-05-07 19:16 46.02942 -0.97405 35472 ft 406 kts
2026-05-07 19:16 46.05764 -0.96911 35579 ft 410 kts
2026-05-07 19:16 46.08610 -0.96415 35685 ft 413 kts
2026-05-07 19:16 46.11435 -0.95923 35913 ft 412 kts
2026-05-07 19:17 46.14278 -0.95428 36178 ft 411 kts
2026-05-07 19:17 46.17122 -0.95149 36403 ft 407 kts 355°
2026-05-07 19:17 46.19922 -0.95601 36637 ft 403 kts 344°
2026-05-07 19:17 46.22586 -0.96793 36881 ft 397 kts 334°
2026-05-07 19:18 46.25025 -0.98606 37093 ft 392 kts 323°
2026-05-07 19:18 46.27176 -1.00917 37299 ft 389 kts 317°
2026-05-07 19:18 46.29274 -1.03398 37516 ft 389 kts 317°
2026-05-07 19:18 46.31396 -1.05840 37739 ft 389 kts 318°
2026-05-07 19:19 46.33515 -1.08270 37962 ft 388 kts 318°
2026-05-07 19:19 46.35619 -1.10717 38177 ft 387 kts 317°
2026-05-07 19:19 46.37719 -1.13174 38382 ft 387 kts 317°
2026-05-07 19:19 46.39797 -1.15588 38583 ft 387 kts 318°
2026-05-07 19:20 46.41906 -1.18036 38751 ft 387 kts 318°
2026-05-07 19:20 46.44007 -1.20484 38906 ft 387 kts 318°
2026-05-07 19:20 46.46101 -1.22933 39053 ft 386 kts 317°
2026-05-07 19:20 46.48201 -1.25386 39202 ft 387 kts 318°
2026-05-07 19:21 46.50298 -1.27835 39355 ft 386 kts 318°
2026-05-07 19:21 46.52366 -1.30254 39492 ft 386 kts 318°
2026-05-07 19:21 46.54462 -1.32711 39642 ft 386 kts 318°
2026-05-07 19:21 46.56558 -1.35168 39789 ft 386 kts 318°
2026-05-07 19:22 46.58653 -1.37626 39929 ft 384 kts 319°
2026-05-07 19:22 46.60874 -1.39782 39959 ft 386 kts 329°
2026-05-07 19:22 46.65753 -1.43204 39977 ft 395 kts 330°
2026-05-07 19:23 46.70739 -1.46778 39974 ft 402 kts 331°
2026-05-07 19:23 46.75806 -1.50353 39976 ft 404 kts 331°
2026-05-07 19:24 46.80820 -1.53931 39975 ft 402 kts 331°
2026-05-07 19:24 46.85845 -1.57510 39976 ft 402 kts 331°
2026-05-07 19:25 46.90870 -1.61106 39977 ft 402 kts 330°
2026-05-07 19:25 46.95897 -1.64702 39980 ft 402 kts 331°
2026-05-07 19:26 47.00927 -1.68313 39979 ft 402 kts 331°
2026-05-07 19:26 47.05964 -1.71934 39976 ft 401 kts 330°
2026-05-07 19:27 47.10944 -1.75525 39978 ft 402 kts 331°
2026-05-07 19:27 47.15973 -1.79154 39977 ft 401 kts 330°
2026-05-07 19:28 47.20985 -1.82785 39980 ft 401 kts 330°
2026-05-07 19:28 47.26004 -1.86423 39980 ft 401 kts 330°
2026-05-07 19:29 47.30981 -1.90043 39975 ft 401 kts 330°
2026-05-07 19:29 47.35659 -1.94420 39976 ft 396 kts 315°
2026-05-07 19:30 47.39335 -2.00413 39977 ft 393 kts 308°
2026-05-07 19:30 47.42930 -2.06442 39978 ft 393 kts 308°
2026-05-07 19:31 47.46518 -2.12545 39979 ft 393 kts 308°
2026-05-07 19:31 47.50118 -2.18642 39980 ft 393 kts 308°
2026-05-07 19:32 47.53714 -2.24772 39986 ft 393 kts 308°
2026-05-07 19:32 47.57271 -2.30835 39986 ft 393 kts 308°
2026-05-07 19:33 47.60858 -2.36969 39996 ft 393 kts 308°
2026-05-07 19:33 47.64442 -2.43110 39997 ft 393 kts 308°
2026-05-07 19:34 47.68210 -2.48915 40001 ft 396 kts 320°
2026-05-07 19:34 47.73076 -2.52845 39998 ft 401 kts 335°
2026-05-07 19:35 47.78238 -2.55952 40004 ft 401 kts 335°
2026-05-07 19:35 47.83407 -2.59092 40003 ft 401 kts 335°
2026-05-07 19:36 47.88594 -2.62232 40001 ft 401 kts 335°
2026-05-07 19:36 47.93770 -2.65383 39999 ft 401 kts 335°
2026-05-07 19:37 47.98942 -2.68532 40001 ft 401 kts 335°
2026-05-07 19:37 48.04090 -2.71677 39999 ft 401 kts 335°
2026-05-07 19:38 48.09268 -2.74845 40003 ft 401 kts 335°
2026-05-07 19:38 48.14420 -2.78003 40006 ft 401 kts 335°
2026-05-07 19:39 48.19587 -2.81181 40006 ft 401 kts 335°
2026-05-07 19:39 48.23888 -2.83831 40007 ft 401 kts 335°
2026-05-07 19:40 48.29936 -2.87563 40004 ft 402 kts 335°
2026-05-07 19:40 48.35078 -2.90745 40005 ft 401 kts 335°
2026-05-07 19:41 48.40250 -2.93951 40006 ft 402 kts 335°
2026-05-07 19:41 48.45421 -2.97165 40005 ft 401 kts 335°
2026-05-07 19:42 48.50548 -3.00357 40001 ft 401 kts 335°
2026-05-07 19:42 48.55723 -3.03588 40002 ft 401 kts 335°
2026-05-07 19:43 48.60893 -3.06821 40005 ft 401 kts 335°
2026-05-07 19:43 48.66031 -3.10044 40007 ft 401 kts 334°
2026-05-07 19:44 48.71204 -3.13293 40007 ft 402 kts 335°
2026-05-07 19:44 48.75499 -3.15998 40008 ft 402 kts 334°
2026-05-07 19:45 48.81499 -3.19785 40005 ft 402 kts 334°
2026-05-07 19:45 48.85799 -3.22501 40005 ft 402 kts 334°
2026-05-07 19:46 48.90974 -3.25783 40006 ft 402 kts 334°
2026-05-07 19:46 48.96115 -3.29047 40007 ft 402 kts 334°
2026-05-07 19:47 49.01294 -3.32343 40002 ft 402 kts 334°
2026-05-07 19:47 49.06458 -3.35642 40001 ft 402 kts 334°
2026-05-07 19:48 49.11585 -3.38917 40004 ft 402 kts 334°
2026-05-07 19:48 49.16746 -3.42227 40008 ft 402 kts 334°
2026-05-07 19:49 49.21915 -3.45545 40007 ft 402 kts 334°
2026-05-07 19:49 49.27078 -3.48871 40006 ft 402 kts 334°
2026-05-07 19:50 49.32200 -3.52177 40001 ft 402 kts 334°
2026-05-07 19:50 49.37367 -3.55517 40008 ft 402 kts 334°
2026-05-07 19:51 49.42533 -3.58866 40005 ft 402 kts 334°
2026-05-07 19:51 49.47688 -3.62215 40003 ft 402 kts 334°
2026-05-07 19:52 49.52813 -3.65551 40005 ft 402 kts 334°
2026-05-07 19:52 49.57968 -3.68919 40008 ft 403 kts 334°
2026-05-07 19:53 49.63120 -3.72289 40007 ft 402 kts 334°
2026-05-07 19:53 49.68354 -3.75365 40009 ft 405 kts 344°
2026-05-07 19:54 49.74010 -3.75850 40007 ft 411 kts
2026-05-07 19:54 49.79714 -3.75022 40009 ft 412 kts
2026-05-07 19:55 49.85432 -3.74249 40008 ft 412 kts
2026-05-07 19:55 49.91137 -3.73434 40011 ft 412 kts
2026-05-07 19:56 49.96820 -3.72653 40014 ft 412 kts
2026-05-07 19:56 50.02555 -3.71842 40017 ft 412 kts
2026-05-07 19:57 50.08246 -3.71045 40020 ft 412 kts
2026-05-07 19:57 50.13987 -3.70236 40021 ft 413 kts
2026-05-07 19:58 50.19682 -3.69430 40021 ft 413 kts
2026-05-07 19:58 50.25413 -3.68619 40024 ft 413 kts
2026-05-07 19:59 50.31151 -3.67801 40027 ft 413 kts
2026-05-07 19:59 50.36847 -3.66995 40030 ft 413 kts